Regional Weather Roundup
Issued by NWS

Home | Current Version | Previous Version | Graphics & Text | Print | Product List | Glossary On
Versions: 1 2 3 4 5 6 7 8 9 10 11 12 13 14 15 16 17 18 19 20 21 22 23 24 25 26 27 28 29 30 31 32 33 34 35 36 37 38 39 40 41 42 43 44 45 46 47 48 49 50
000
ASUS45 KCYS 240510
RWRWY

WYOMING REGIONAL WEATHER ROUNDUP
NATIONAL WEATHER SERVICE CHEYENNE WY
1100 PM MDT MON MAY 23 2016

NOTE:  "FAIR" INDICATES FEW OR NO CLOUDS BELOW 12,000 FEET
WITH NO SIGNIFICANT WEATHER AND/OR OBSTRUCTIONS TO VISIBILITY.

WYZ001-240600-
YELLOWSTONE NATIONAL PARK

CITY           SKY/WX    TMP DP  RH WIND       PRES   REMARKS
LK YELLOWSTONE   N/A     29  26  89 CALM      29.97R
W YELLOWSTONE  NOT AVBL

$$
WYZ002>013-054>058-071-098>099-240600-
NORTHERN WYOMING

CITY           SKY/WX    TMP DP  RH WIND       PRES   REMARKS
JACKSON        CLOUDY    43  32  65 S7        29.94S
CODY           FAIR      46  36  66 CALM      29.88R
GREYBULL       FAIR      53  30  41 W9        29.83R
WORLAND        FAIR      44  30  57 SE3       29.84R
SHERIDAN       FAIR      44  35  70 CALM      29.88R
BUFFALO          N/A     50  33  52 MISG      29.90R
GILLETTE       FAIR      44  32  62 W5        29.88R
HULETT         FAIR      52  32  46 E5        29.88R
NEWCASTLE      FAIR      54  23  30 NW5       29.86R

$$
WYZ014>020-022>026-101>103-240600-
CENTRAL WYOMING

CITY           SKY/WX    TMP DP  RH WIND       PRES   REMARKS
BIG PINEY      FAIR      36  29  75 NE5       29.98R WCI  32
PINEDALE       FAIR      34  30  86 NW3       29.99R
DUBOIS         FAIR      37  25  60 W5        29.96R WCI  34
LANDER         CLOUDY    50  26  39 SW7       29.89R
RIVERTON       FAIR      50  28  42 NW10      29.90R
CASPER         FAIR      49  26  41 SW8       29.90S
DOUGLAS        FAIR      43  34  70 S3        29.91R

$$
WYZ021-027>030-104>119-240600-
SOUTHERN WYOMING

CITY           SKY/WX    TMP DP  RH WIND       PRES   REMARKS
EVANSTON       FAIR      45  29  53 E6        29.96R
KEMMERER         N/A     41  27  56 N5        29.98S
FORT BRIDGER   CLEAR     41  34  75 S9        30.00S
ROCK SPRINGS   CLOUDY    46  32  58 SW6       29.96S
DIXON          FAIR      47  33  58 SE3       30.00S
RAWLINS        MOCLDY    40  30  67 SE5       29.99R
SARATOGA       FAIR      41  32  70 S9G18     30.02R
LARAMIE        FAIR      42  31  64 NE5       30.01R
CHEYENNE       FAIR      45  38  76 W9        29.97R
TORRINGTON     FAIR      49  42  77 N6        29.91R
PINE BLUFFS    FAIR      39  36  87 W3        29.95S

$$



USA.gov is the U.S. government's official web portal to all federal, state and local government web resources and services.